Time,TemperatureF,DewpointF,PressureIn,WindDirection,WindDirectionDegrees,WindSpeedMPH,WindSpeedGustMPH,Humidity,HourlyPrecipIn,Conditions,Clouds,dailyrainin,SoftwareType,DateUTC
2013-01-15 00:02:00,47.0,11.0,-100.00,NNE,29,-999.0,9.0,23,-99.99,,,-99.99,,2013-01-15 08:02:00,
2013-01-15 00:12:00,47.0,11.0,-100.00,NNE,29,-999.0,9.0,23,-99.99,,,-99.99,,2013-01-15 08:12:00,
2013-01-15 00:43:00,47.0,11.0,-100.00,North,8,-999.0,-999.0,23,-99.99,,,0.00,,2013-01-15 08:43:00,
2013-01-15 00:53:00,47.0,11.0,-100.00,North,8,-999.0,-999.0,23,-99.99,,,0.00,,2013-01-15 08:53:00,
2013-01-15 01:02:00,47.0,11.0,-100.00,North,8,-999.0,-999.0,23,-99.99,,,0.00,,2013-01-15 09:02:00,
2013-01-15 01:11:00,46.0,14.0,-100.00,NNE,13,-999.0,9.0,27,-99.99,,,-99.99,,2013-01-15 09:11:00,
2013-01-15 01:22:00,46.0,14.0,-100.00,NNE,13,-999.0,9.0,27,-99.99,,,-99.99,,2013-01-15 09:22:00,
2013-01-15 01:33:00,46.0,14.0,-100.00,NNE,13,-999.0,9.0,27,-99.99,,,-99.99,,2013-01-15 09:33:00,
2013-01-15 01:42:00,45.0,16.0,0.00,North,11,-999.0,-999.0,31,-99.99,,,-99.99,,2013-01-15 09:42:00,
2013-01-15 01:52:00,45.0,16.0,0.00,North,11,-999.0,-999.0,31,-99.99,,,-99.99,,2013-01-15 09:52:00,
2013-01-15 02:02:00,45.0,16.0,0.00,North,11,-999.0,-999.0,31,-99.99,,,-99.99,,2013-01-15 10:02:00,
2013-01-15 02:11:00,46.0,16.0,-100.00,North,0,-999.0,-999.0,30,-99.99,,,-99.99,,2013-01-15 10:11:00,
2013-01-15 02:22:00,46.0,16.0,-100.00,North,0,-999.0,-999.0,30,-99.99,,,-99.99,,2013-01-15 10:22:00,
2013-01-15 02:32:00,46.0,16.0,-100.00,North,0,-999.0,-999.0,30,-99.99,,,-99.99,,2013-01-15 10:32:00,
2013-01-15 02:42:00,45.0,16.0,-100.00,ENE,76,-999.0,9.0,31,-99.99,,,0.00,,2013-01-15 10:42:00,
2013-01-15 02:52:00,45.0,16.0,-100.00,ENE,76,-999.0,9.0,31,-99.99,,,0.00,,2013-01-15 10:52:00,
2013-01-15 03:02:00,45.0,16.0,-100.00,ENE,76,-999.0,9.0,31,-99.99,,,0.00,,2013-01-15 11:02:00,
2013-01-15 03:12:00,42.0,16.0,-100.00,NE,39,-999.0,9.0,34,-99.99,,,-99.99,,2013-01-15 11:12:00,
2013-01-15 03:22:00,42.0,16.0,-100.00,NE,39,-999.0,9.0,34,-99.99,,,-99.99,,2013-01-15 11:22:00,
2013-01-15 03:32:00,42.0,16.0,-100.00,NE,39,-999.0,9.0,34,-99.99,,,-99.99,,2013-01-15 11:32:00,
2013-01-15 03:42:00,46.0,14.0,-100.00,NNE,27,-999.0,9.0,27,-99.99,,,0.00,,2013-01-15 11:42:00,
2013-01-15 03:53:00,46.0,14.0,-100.00,NNE,27,-999.0,9.0,27,-99.99,,,0.00,,2013-01-15 11:53:00,
2013-01-15 04:02:00,46.0,14.0,-100.00,NNE,27,-999.0,9.0,27,-99.99,,,0.00,,2013-01-15 12:02:00,
2013-01-15 04:12:00,42.0,14.0,-100.00,North,4,-999.0,9.0,32,-99.99,,,-99.99,,2013-01-15 12:12:00,
2013-01-15 04:22:00,42.0,14.0,-100.00,North,4,-999.0,9.0,32,-99.99,,,-99.99,,2013-01-15 12:22:00,
2013-01-15 04:32:00,42.0,14.0,-100.00,North,4,-999.0,9.0,32,-99.99,,,-99.99,,2013-01-15 12:32:00,
2013-01-15 04:42:00,42.0,14.0,-100.00,North,4,-999.0,9.0,32,-99.99,,,-99.99,,2013-01-15 12:42:00,
2013-01-15 05:12:00,46.0,14.0,-100.00,NNW,345,-999.0,9.0,27,-99.99,,,-99.99,,2013-01-15 13:12:00,
2013-01-15 05:23:00,46.0,14.0,-100.00,NNW,345,-999.0,9.0,27,-99.99,,,-99.99,,2013-01-15 13:23:00,
2013-01-15 05:33:00,46.0,14.0,-100.00,North,354,-999.0,9.0,27,-99.99,,,0.00,,2013-01-15 13:33:00,
2013-01-15 05:42:00,46.0,14.0,-100.00,North,354,-999.0,9.0,27,-99.99,,,0.00,,2013-01-15 13:42:00,
2013-01-15 05:53:00,46.0,14.0,-100.00,North,354,-999.0,9.0,27,-99.99,,,0.00,,2013-01-15 13:53:00,
2013-01-15 06:02:00,46.0,14.0,-100.00,North,354,-999.0,9.0,27,-99.99,,,0.00,,2013-01-15 14:02:00,
2013-01-15 06:12:00,46.0,14.0,-100.00,North,354,-999.0,9.0,27,-99.99,,,0.00,,2013-01-15 14:12:00,
2013-01-15 07:33:00,46.0,14.0,0.00,NNE,24,-999.0,9.0,27,-99.99,,,0.00,,2013-01-15 15:33:00,
2013-01-15 07:43:00,46.0,14.0,0.00,NNE,24,-999.0,9.0,27,-99.99,,,0.00,,2013-01-15 15:43:00,
2013-01-15 07:53:00,46.0,14.0,0.00,NNE,24,-999.0,9.0,27,-99.99,,,0.00,,2013-01-15 15:53:00,
2013-01-15 08:02:00,46.0,14.0,0.00,NNE,24,-999.0,9.0,27,-99.99,,,0.00,,2013-01-15 16:02:00,
2013-01-15 08:12:00,48.0,16.0,-100.00,NNE,32,-999.0,9.0,27,-99.99,,,-99.99,,2013-01-15 16:12:00,
2013-01-15 08:22:00,48.0,16.0,-100.00,NNE,32,-999.0,9.0,27,-99.99,,,-99.99,,2013-01-15 16:22:00,
2013-01-15 08:33:00,48.0,16.0,-100.00,NNE,32,-999.0,9.0,27,-99.99,,,-99.99,,2013-01-15 16:33:00,
2013-01-15 08:42:00,48.0,16.0,-100.00,NNE,32,-999.0,9.0,27,-99.99,,,-99.99,,2013-01-15 16:42:00,
2013-01-15 09:12:00,52.0,16.0,-100.00,NNE,18,-999.0,-999.0,24,-99.99,,,-99.99,,2013-01-15 17:12:00,
2013-01-15 09:22:00,52.0,16.0,-100.00,NNE,18,-999.0,-999.0,24,-99.99,,,-99.99,,2013-01-15 17:22:00,
2013-01-15 09:33:00,52.0,16.0,-100.00,NNE,18,-999.0,-999.0,24,-99.99,,,-99.99,,2013-01-15 17:33:00,
2013-01-15 09:42:00,52.0,17.0,-100.00,NNE,14,-999.0,10.0,25,-99.99,,,-99.99,,2013-01-15 17:42:00,
2013-01-15 09:53:00,52.0,17.0,-100.00,NNE,14,-999.0,10.0,25,-99.99,,,-99.99,,2013-01-15 17:53:00,
2013-01-15 10:02:00,52.0,17.0,-100.00,NNE,14,-999.0,10.0,25,-99.99,,,-99.99,,2013-01-15 18:02:00,
2013-01-15 10:12:00,57.0,20.0,-100.00,NE,49,-999.0,-999.0,23,-99.99,,,-99.99,,2013-01-15 18:12:00,
2013-01-15 10:23:00,57.0,20.0,-100.00,NE,49,-999.0,-999.0,23,-99.99,,,-99.99,,2013-01-15 18:23:00,
2013-01-15 10:33:00,57.0,20.0,-100.00,NE,49,-999.0,-999.0,23,-99.99,,,-99.99,,2013-01-15 18:33:00,
2013-01-15 10:42:00,57.0,20.0,-100.00,NE,49,-999.0,-999.0,23,-99.99,,,-99.99,,2013-01-15 18:42:00,
2013-01-15 11:12:00,61.0,22.0,-100.00,South,186,-999.0,0.0,22,-99.99,,,-99.99,,2013-01-15 19:12:00,
2013-01-15 11:22:00,61.0,22.0,-100.00,South,186,-999.0,0.0,22,-99.99,,,-99.99,,2013-01-15 19:22:00,
2013-01-15 11:33:00,61.0,22.0,-100.00,South,186,-999.0,0.0,22,-99.99,,,-99.99,,2013-01-15 19:33:00,
2013-01-15 11:42:00,57.0,29.0,-100.00,SW,234,-999.0,6.0,34,-99.99,,,-99.99,,2013-01-15 19:42:00,
2013-01-15 11:53:00,57.0,29.0,-100.00,SW,234,-999.0,6.0,34,-99.99,,,-99.99,,2013-01-15 19:53:00,
2013-01-15 12:03:00,57.0,29.0,-100.00,SW,234,-999.0,6.0,34,-99.99,,,-99.99,,2013-01-15 20:03:00,
2013-01-15 12:12:00,57.0,29.0,-100.00,SW,234,-999.0,6.0,34,-99.99,,,-99.99,,2013-01-15 20:12:00,
2013-01-15 13:12:00,58.0,26.0,-100.00,West,267,-999.0,9.0,29,-99.99,,,-99.99,,2013-01-15 21:12:00,
2013-01-15 13:22:00,58.0,26.0,-100.00,West,267,-999.0,9.0,29,-99.99,,,-99.99,,2013-01-15 21:22:00,
2013-01-15 13:33:00,58.0,26.0,-100.00,West,267,-999.0,9.0,29,-99.99,,,-99.99,,2013-01-15 21:33:00,
2013-01-15 13:42:00,62.0,29.0,0.00,South,176,-999.0,10.0,29,-99.99,,,0.00,,2013-01-15 21:42:00,
2013-01-15 13:53:00,62.0,29.0,0.00,South,176,-999.0,10.0,29,-99.99,,,0.00,,2013-01-15 21:53:00,
2013-01-15 14:02:00,62.0,29.0,0.00,South,176,-999.0,10.0,29,-99.99,,,0.00,,2013-01-15 22:02:00,
2013-01-15 14:12:00,61.0,32.0,-100.00,SSW,201,-999.0,7.0,34,-99.99,,,-99.99,,2013-01-15 22:12:00,
2013-01-15 14:22:00,61.0,32.0,-100.00,SSW,201,-999.0,7.0,34,-99.99,,,-99.99,,2013-01-15 22:22:00,
2013-01-15 14:32:00,61.0,32.0,-100.00,SSW,201,-999.0,7.0,34,-99.99,,,-99.99,,2013-01-15 22:32:00,
2013-01-15 14:42:00,61.0,32.0,-100.00,SSW,201,-999.0,7.0,34,-99.99,,,-99.99,,2013-01-15 22:42:00,
2013-01-15 15:12:00,58.0,37.0,-100.00,WSW,258,-999.0,12.0,46,-99.99,,,-99.99,,2013-01-15 23:12:00,
2013-01-15 15:22:00,58.0,37.0,-100.00,WSW,258,-999.0,12.0,46,-99.99,,,-99.99,,2013-01-15 23:22:00,
2013-01-15 15:32:00,58.0,37.0,-100.00,WSW,258,-999.0,12.0,46,-99.99,,,-99.99,,2013-01-15 23:32:00,
2013-01-15 15:42:00,58.0,37.0,-100.00,WSW,258,-999.0,12.0,46,-99.99,,,-99.99,,2013-01-15 23:42:00,
2013-01-15 16:43:00,56.0,45.0,0.00,West,276,-999.0,-999.0,66,-99.99,,,-99.99,,2013-01-16 00:43:00,
2013-01-15 16:53:00,56.0,45.0,0.00,West,276,-999.0,-999.0,66,-99.99,,,-99.99,,2013-01-16 00:53:00,
2013-01-15 17:02:00,56.0,45.0,0.00,West,276,-999.0,-999.0,66,-99.99,,,-99.99,,2013-01-16 01:02:00,